RH
75 90 50 33 44 46 59 66 58 68 67 94 59 61 54 59 66 59 44 38 48 53 21 28 45 48 75 99 86 98 53 30 58 16 8 6 7 12 11 13 45 75 76 72
72 58 61 66 77 77 86 73 60 69 92 50 40 53 57 63 64 55 53 44 53 19 27 37 31 56 82 94 88 33 19 46 16 7 6 7 8 10 21 23 44 68 66 85
62 49 88 88 90 82 74 67 72 90 78 62 45 44 57 70 66 60 42 42 27 22 31 23 29 72 81 67 42 21 33 38 9 6 6 7 8 16 21 34 44 56 68 95
44 46 79 81 82 99 86 83 92 96 75 46 32 27 48 63 61 52 37 36 18 25 24 46 37 48 26 13 14 15 35 35 6 6 6 9 20 17 29 29 37 52 85 98
38 34 63 71 71 98 68 94 97 98 64 46 25 34 36 66 60 50 44 20 29 32 36 53 16 14 11 11 12 34 33 7 5 6 13 24 11 25 18 45 80 90 89 97
28 28 70 79 96 97 100 97 95 81 59 39 27 27 26 55 61 51 29 37 46 52 73 31 25 22 12 10 23 31 6 5 6 15 24 11 14 15 39 58 87 84 92 98
26 21 48 76 91 90 88 91 78 59 47 34 24 20 18 44 39 44 25 46 63 83 48 32 30 18 14 12 22 5 4 6 8 25 15 8 8 29 47 80 76 73 99 84
26 22 31 54 62 80 83 86 68 51 37 30 21 16 14 48 36 29 26 63 65 51 50 30 16 19 15 28 9 4 5 5 10 22 5 7 22 38 67 62 74 93 99 46
34 25 21 31 47 59 61 50 42 31 26 23 18 15 14 44 42 26 30 67 51 48 38 31 15 14 30 14 4 4 5 11 25 6 4 16 30 55 73 56 83 93 90 48
33 28 21 22 28 40 46 32 28 22 18 16 13 11 12 31 34 32 66 43 50 34 42 32 19 20 14 4 4 4 6 29 16 9 13 31 44 62 63 83 84 76 77 52
31 30 32 26 15 19 28 30 19 17 14 13 11 8 12 35 30 43 33 40 31 38 44 23 16 15 4 4 4 4 21 23 16 19 37 41 46 40 62 81 81 52 49 55
28 34 30 22 20 17 13 12 11 12 13 11 8 9 10 30 27 40 48 36 36 55 40 13 18 12 4 4 4 4 28 24 22 31 42 44 41 34 66 75 83 62 73 74
24 37 34 27 23 18 10 8 9 10 10 8 11 12 13 23 19 28 42 46 42 49 17 14 21 9 4 4 4 4 26 24 15 23 42 28 35 38 67 76 83 76 78 79
18 27 30 21 14 15 10 10 10 12 8 8 12 46 29 20 15 24 53 31 41 21 11 15 23 5 3 3 4 4 11 32 12 24 34 16 36 66 63 75 77 69 75 78
21 26 28 24 18 14 12 12 10 8 9 13 15 39 32 18 15 37 82 45 34 20 13 19 23 3 3 3 4 4 4 10 10 27 26 21 51 47 70 86 79 74 83 91
27 33 29 25 22 18 13 12 10 12 13 13 25 35 58 18 30 87 64 63 58 28 19 18 20 3 4 3 4 4 4 4 8 25 12 19 55 51 58 62 69 77 84 79
37 34 30 29 29 25 15 10 12 13 15 15 21 39 36 23 25 56 42 56 86 51 24 15 14 3 8 5 4 4 4 4 6 12 7 9 33 54 66 66 69 85 80 90
59 30 31 35 35 29 12 16 15 16 16 16 18 44 46 30 25 43 51 41 58 50 19 13 16 5 7 11 5 4 4 4 7 7 6 6 11 37 55 56 68 70 70 74
85 39 38 52 32 22 18 23 18 18 18 18 19 35 47 46 41 42 38 33 47 59 18 13 21 8 8 26 18 5 4 5 7 6 7 6 6 8 11 12 19 12 21 48
99 65 54 43 32 29 26 27 26 21 19 17 22 30 41 36 28 26 28 30 36 44 20 14 16 14 9 23 30 12 4 5 6 6 7 7 8 7 7 7 8 8 8 7
100 92 75 53 34 30 34 26 33 22 17 16 21 26 19 14 15 28 31 33 38 36 26 16 15 22 21 19 22 31 5 5 5 7 7 7 7 8 8 7 8 8 7 7
100 100 93 60 45 38 39 31 28 30 16 19 18 22 16 16 22 29 57 31 27 27 21 19 21 16 29 21 21 31 13 5 6 6 8 8 8 8 7 7 7 7 7 9
100 100 100 80 51 47 64 32 24 28 17 20 18 23 22 17 12 14 43 26 22 23 23 24 27 14 21 31 24 31 25 6 5 6 6 8 8 8 10 12 12 13 12 11
100 100 92 80 77 57 53 44 30 30 23 17 18 21 24 19 18 15 26 28 23 21 20 20 22 15 13 28 27 30 27 7 5 6 6 6 7 8 12 14 13 11 10 8
100 100 95 80 80 73 60 63 38 34 27 24 19 22 24 17 33 24 19 23 22 26 21 21 20 17 12 12 28 29 27 9 6 5 6 7 7 9 12 14 11 11 9 8
98 100 100 93 82 78 66 65 54 43 37 27 22 24 23 23 42 58 24 25 22 22 22 22 20 16 13 9 20 28 27 23 7 6 6 6 8 10 11 12 13 12 10 9
Wind_Speed
55 63 65 58 61 64 64 61 54 48 40 40 35 40 27 26 34 25 25 25 26 21 19 15 13 16 19 29 32 34 38 32 32 32 31 32 33 33 35 31 31 31 31 30
50 52 51 62 67 64 64 60 50 35 21 33 29 33 28 22 26 30 27 21 19 17 10 14 18 18 22 31 35 32 28 28 29 29 30 31 32 33 34 29 31 30 30 29
46 36 36 53 62 63 58 49 38 24 29 32 32 35 28 20 28 31 26 23 20 13 13 12 15 19 24 26 27 27 25 27 27 27 29 32 33 34 29 27 30 30 28 25
46 42 38 42 47 55 53 42 37 30 32 31 32 38 28 22 29 29 22 21 16 14 10 10 17 15 19 18 21 22 24 26 26 26 29 31 32 27 26 28 28 27 24 21
45 40 38 36 36 37 41 37 34 30 33 38 35 41 19 26 31 24 18 16 13 11 7 12 15 15 15 17 19 20 22 23 24 26 28 28 24 24 26 25 27 23 22 19
49 44 40 32 27 28 32 37 34 31 32 45 33 38 16 23 25 19 23 14 11 8 10 15 17 16 17 17 18 19 20 21 23 25 26 23 23 24 25 28 24 21 18 16
55 52 46 39 34 35 35 36 38 39 44 48 28 39 17 9 16 23 20 15 11 8 12 15 20 16 17 14 15 17 17 21 22 23 25 19 22 21 25 24 19 17 13 9
55 52 51 47 42 40 37 38 39 41 39 40 30 38 19 14 19 24 22 18 12 8 9 15 18 14 15 13 15 14 18 21 21 21 19 19 19 21 25 18 17 14 8 5
58 54 50 50 44 42 41 45 39 40 41 44 36 36 23 18 29 19 16 20 11 4 9 16 16 13 12 11 12 14 19 20 18 19 17 17 17 20 17 18 15 10 4 4
60 56 52 51 45 48 46 42 43 44 46 45 41 33 19 28 30 16 20 17 7 3 9 13 14 10 9 12 9 15 18 16 16 16 14 14 15 18 14 16 12 10 5 7
62 62 53 48 55 50 51 53 52 47 48 45 42 25 22 32 24 20 15 11 7 4 10 12 8 9 10 9 9 15 15 15 15 12 12 12 14 16 12 14 14 12 10 10
64 64 55 47 42 43 44 46 43 45 43 39 32 22 23 28 23 21 15 12 2 2 8 7 9 8 11 7 9 14 12 12 13 10 10 11 14 15 11 10 13 11 10 9
68 65 55 52 44 44 46 45 42 42 42 40 28 20 22 28 27 23 20 11 4 3 5 6 8 7 11 7 8 12 9 11 12 13 9 13 14 16 6 8 10 10 8 9
70 66 59 54 45 40 45 46 43 44 41 32 23 20 25 27 25 22 16 10 5 1 4 5 8 7 11 6 6 10 9 9 11 12 8 13 14 11 7 9 13 12 9 9
69 66 61 55 50 46 47 40 39 42 33 29 24 25 26 27 21 18 17 12 5 3 3 6 7 5 9 7 6 8 10 9 8 10 8 10 13 13 12 11 11 13 13 12
71 69 65 57 53 49 51 48 45 41 33 28 26 32 28 26 24 21 17 14 7 0 4 4 4 2 6 7 7 7 9 7 6 7 10 9 10 12 11 12 10 9 7 12
73 72 69 62 57 52 55 49 46 43 35 31 32 31 31 29 25 21 18 16 9 5 5 1 2 1 5 8 9 6 7 7 5 6 9 8 9 12 12 10 11 11 8 14
69 74 72 68 63 57 49 48 45 38 32 32 33 37 31 26 22 20 17 17 11 6 8 1 1 1 3 7 9 6 6 8 6 6 8 10 12 14 14 14 15 15 13 14
65 73 75 71 66 56 53 49 51 46 35 33 32 36 34 30 27 22 21 17 11 6 9 4 4 3 3 5 8 8 5 7 5 6 7 9 10 13 15 15 15 17 18 19
56 67 73 71 66 62 61 51 50 43 41 38 33 36 39 38 35 25 20 16 11 10 11 5 5 4 3 1 5 7 6 6 4 5 6 9 12 13 12 13 14 15 17 18
48 58 62 68 65 66 68 60 50 49 43 42 36 38 39 39 33 25 22 18 15 13 14 10 5 6 5 4 3 6 5 4 3 5 6 6 8 10 11 12 12 13 14 15
50 50 54 61 63 66 59 59 57 50 47 43 40 38 36 34 32 27 23 22 20 18 15 11 7 6 6 6 5 4 3 2 2 4 6 5 4 5 7 7 8 10 11 14
42 46 49 55 61 62 58 64 61 54 49 47 43 39 37 35 32 30 27 24 22 20 16 15 12 9 9 8 7 3 4 1 3 2 6 7 5 4 6 8 10 13 15 15
37 39 52 56 58 60 57 57 59 57 52 48 46 41 38 33 32 32 29 26 24 23 20 17 15 10 10 11 11 8 6 4 2 4 4 7 7 7 8 10 11 12 13 16
47 39 52 57 53 55 61 55 55 55 54 50 46 44 40 37 35 32 29 28 27 23 23 19 18 14 10 12 12 11 9 9 5 4 5 6 8 10 9 10 10 10 10 12
46 43 43 50 52 55 55 57 57 51 50 54 49 44 42 35 36 31 29 26 26 24 23 22 21 19 14 12 15 14 10 10 9 7 6 8 9 11 11 11 11 9 8 8
Wind_Direction
244 242 242 248 251 252 257 257 262 270 280 258 252 255 245 233 251 253 253 263 259 272 271 288 305 311 310 303 303 309 308 309 307 312 315 315 316 315 315 316 318 317 311 310
246 242 246 245 246 248 250 255 257 272 243 256 259 256 252 247 245 247 259 271 256 256 265 286 297 309 303 296 300 302 307 306 307 312 315 315 316 314 316 317 318 311 315 309
244 251 260 249 247 250 252 256 261 233 244 259 275 252 250 242 237 244 263 271 264 244 261 297 310 298 289 290 297 304 299 306 308 315 317 316 315 312 315 315 313 314 314 311
240 241 242 237 238 244 248 251 252 225 252 258 261 251 240 235 240 247 276 269 255 255 270 312 305 305 300 301 306 300 297 304 312 318 318 317 313 316 315 316 314 314 315 316
237 241 251 240 233 235 237 248 240 235 242 258 245 254 210 240 238 261 260 248 238 253 295 310 314 322 307 304 304 308 302 310 317 321 320 317 317 320 322 319 319 315 315 323
231 228 231 233 229 227 233 241 230 237 238 245 242 252 232 245 252 247 240 211 229 254 268 298 321 318 320 311 309 303 308 318 321 322 319 313 320 324 323 324 321 317 321 331
221 225 224 226 218 213 214 223 232 235 234 242 244 252 244 275 238 230 224 207 223 224 274 321 321 313 316 304 303 308 318 320 320 319 317 315 322 327 326 327 319 324 329 347
221 221 222 222 222 219 222 228 238 246 248 256 249 247 260 249 241 233 210 203 231 245 314 328 315 319 308 308 308 312 320 322 321 319 319 323 328 328 331 333 334 340 343 42
218 218 219 221 225 222 222 228 235 245 251 254 245 249 255 237 231 229 213 223 219 277 333 329 331 316 310 314 312 313 324 326 327 322 323 330 334 337 341 341 336 350 21 99
216 216 215 218 219 222 229 235 237 239 244 249 253 245 240 223 232 222 207 216 219 272 341 328 320 315 314 322 314 320 330 330 331 333 335 342 348 349 338 1 16 27 95 93
216 216 212 216 220 221 222 227 229 231 238 246 250 238 226 221 226 207 219 210 220 9 342 322 318 327 326 326 319 327 336 335 337 341 352 355 350 360 347 12 33 68 81 77
213 217 210 208 215 218 220 227 232 235 241 246 244 231 220 212 220 207 210 216 212 329 323 318 342 325 337 323 321 333 343 353 355 344 354 356 350 357 352 19 43 65 72 87
209 213 207 207 210 205 214 219 214 220 229 228 224 208 214 211 212 206 204 212 197 249 331 335 345 342 339 328 320 335 343 350 344 349 344 359 357 353 3 46 54 58 75 81
207 211 207 207 208 208 205 208 214 218 218 214 208 175 199 204 208 202 199 221 191 40 8 350 351 349 348 339 314 337 339 336 347 350 349 3 6 22 63 81 63 69 79 84
203 209 207 203 201 200 200 208 215 215 208 206 191 186 203 205 198 187 191 213 203 65 9 1 350 353 4 7 331 340 342 334 350 9 8 19 33 57 63 72 66 68 84 72
202 204 206 200 202 200 201 202 201 210 204 196 186 182 204 200 184 193 211 203 204 132 338 357 349 6 13 11 356 348 350 350 359 16 18 43 53 70 64 61 62 73 78 58
202 202 204 200 203 201 203 200 204 205 195 196 190 174 199 201 189 195 208 201 195 226 297 334 335 126 30 12 15 356 2 9 21 32 48 55 60 56 59 70 73 74 79 65
205 202 203 202 202 204 198 205 209 206 194 191 186 179 194 201 198 206 213 207 194 226 267 263 204 167 62 16 22 8 15 23 39 62 72 72 71 74 70 77 79 77 80 81
206 204 205 208 202 199 204 202 210 207 198 197 193 185 189 197 206 207 207 202 192 228 242 241 168 203 105 32 18 14 26 33 57 84 79 85 84 87 87 81 78 80 82 81
207 207 208 206 201 201 208 202 211 201 195 195 191 184 189 197 205 200 207 208 207 223 233 237 182 193 189 29 12 6 31 42 77 105 95 93 92 92 87 86 86 83 82 83
206 210 211 209 201 204 209 207 210 206 195 199 192 191 197 200 201 201 216 212 210 213 223 224 234 190 214 224 292 346 20 58 82 135 127 122 105 93 89 92 86 85 89 87
209 214 214 210 202 205 209 208 208 209 201 203 198 197 204 199 195 200 214 219 208 208 215 226 246 221 211 219 240 303 334 76 89 156 160 156 136 103 94 94 93 100 92 90
204 211 219 214 205 206 210 209 210 211 206 203 206 202 206 211 209 202 209 211 202 206 204 220 231 223 197 216 228 257 266 216 144 151 177 186 177 144 108 106 103 104 106 103
196 201 216 220 215 212 213 212 211 213 212 208 206 203 207 207 215 213 203 208 203 206 208 211 227 226 204 204 230 247 243 229 180 183 178 187 186 169 146 135 130 120 111 109
208 193 216 220 220 215 216 219 212 214 214 213 209 206 204 205 211 212 208 200 207 208 212 210 220 225 216 207 217 232 226 220 202 192 201 189 175 171 165 162 158 151 138 128
214 198 195 209 217 217 214 217 218 215 214 216 214 208 210 206 211 210 207 202 190 196 206 212 214 223 221 207 205 223 232 226 219 203 207 205 199 183 183 184 190 188 175 173